RH
84 84 84 86 85 84 86 84 85 85 86 86 85 85 88 88 88 41 15 15 22 69 71 13 9 12 11 13 12 19 22 14 14 15 17 14 16 14 14 20 21 22 30 32 30
82 82 83 84 84 84 86 87 85 85 84 86 84 84 86 86 36 16 21 58 70 71 12 8 8 8 11 11 8 9 12 11 10 10 34 41 19 18 20 22 23 23 28 30 30
79 81 83 82 82 83 84 86 86 84 86 85 84 83 84 72 24 9 39 61 70 54 7 6 7 8 10 8 7 7 9 8 11 11 26 28 29 44 61 27 25 32 34 33 33
80 81 83 82 81 82 83 84 85 86 86 83 82 82 82 42 14 11 68 67 72 12 8 8 6 9 11 8 6 8 9 9 8 15 14 12 18 34 50 53 25 27 30 32 34
82 85 86 86 83 84 84 85 86 87 86 85 82 80 58 21 12 19 67 58 13 10 8 8 6 10 10 6 6 9 10 9 11 12 11 14 21 29 30 28 23 24 29 32 32
85 87 87 87 86 85 86 87 87 87 86 84 80 82 35 18 5 11 7 8 6 7 7 6 6 8 7 6 6 8 9 9 9 10 12 16 20 24 28 25 27 28 30 30 30
86 87 87 87 86 84 85 87 87 88 86 81 78 47 24 10 5 7 6 5 5 6 6 4 5 7 6 6 8 9 11 10 9 12 14 13 24 31 28 28 30 30 30 29 29
86 87 87 88 87 88 89 90 87 88 85 81 81 37 23 8 6 7 6 4 3 4 4 4 6 6 6 5 7 10 10 13 13 16 17 17 33 30 26 29 32 31 30 31 32
85 86 87 88 89 89 90 89 87 89 84 80 58 33 20 18 7 8 6 4 3 4 4 4 7 7 6 7 11 10 14 15 17 16 16 18 26 27 23 25 28 29 29 31 33
85 86 87 88 89 90 91 90 72 86 74 39 30 28 20 12 6 7 6 3 4 4 5 8 9 8 6 8 14 13 14 15 17 15 17 19 24 23 20 22 26 27 28 30 31
85 86 87 88 89 90 68 17 38 46 35 21 13 10 8 8 6 6 5 3 4 5 9 10 10 9 7 8 8 9 10 16 14 19 21 20 21 22 18 20 25 26 28 27 27
86 86 87 88 88 88 69 15 13 11 17 11 12 10 7 5 7 5 4 5 5 8 8 9 9 7 6 6 7 7 9 10 11 11 14 24 25 20 18 18 22 24 27 26 26
86 86 87 88 87 61 19 15 8 9 17 13 9 7 8 6 7 6 4 4 5 8 8 9 7 6 6 6 7 7 7 8 11 11 10 14 25 34 21 17 18 19 23 23 25
86 86 88 90 43 16 11 9 10 9 20 11 8 7 7 7 8 4 4 5 5 8 7 7 6 6 6 6 6 8 6 6 7 11 14 13 21 37 27 20 20 19 20 21 23
86 86 88 90 42 18 7 6 7 12 25 6 6 4 6 8 6 4 4 4 6 6 6 7 6 6 7 7 6 7 5 6 6 8 9 11 17 29 22 26 20 18 18 18 20
86 86 88 32 44 25 15 10 10 23 19 7 6 6 8 8 6 5 5 4 4 6 6 5 4 4 5 4 5 5 8 7 7 8 13 11 15 26 37 32 23 24 18 19 18
86 87 81 45 15 6 9 12 21 26 9 8 7 6 7 8 6 6 7 7 7 10 9 6 5 4 4 6 6 6 10 15 16 16 16 10 13 21 19 18 23 33 40 18 18
87 87 58 30 22 21 14 15 29 18 13 6 5 6 8 7 6 5 7 7 6 6 7 8 8 6 5 6 8 8 9 14 26 17 13 12 18 19 11 13 23 23 20 17 18
87 23 13 19 21 15 13 22 19 15 10 7 6 7 7 6 5 6 6 6 6 6 10 8 9 6 5 5 6 9 11 7 11 9 11 12 13 10 10 10 9 11 10 17 17
59 29 14 7 16 16 12 25 12 8 8 8 11 8 8 6 6 7 7 6 6 6 6 8 13 6 5 6 6 8 7 11 10 22 21 12 13 14 20 14 12 11 10 13 18
50 24 8 7 16 13 13 14 11 7 8 11 12 12 6 6 5 6 7 6 5 6 6 6 9 9 6 8 8 8 9 9 8 10 15 16 19 16 20 15 12 11 12 12 13
27 17 9 12 20 13 11 12 16 7 8 9 10 10 12 10 6 6 7 7 5 5 7 6 7 12 8 6 6 6 9 11 15 22 16 17 15 10 11 10 10 12 12 13 15
35 16 9 12 18 13 11 11 9 7 9 10 9 9 9 12 12 6 5 4 5 6 8 7 10 13 12 7 6 8 8 8 8 10 25 18 17 15 10 11 12 13 14 23 25
43 19 10 13 13 13 12 13 12 7 8 10 9 8 8 11 10 10 6 4 4 5 34 15 7 15 10 13 9 11 8 7 7 16 15 14 17 16 14 16 21 18 18 20 29
41 23 21 21 12 13 13 14 16 11 9 11 13 11 11 15 11 10 7 5 4 24 8 8 19 10 8 6 6 8 8 8 10 12 16 15 19 23 25 18 17 16 18 19 25
39 34 24 25 26 23 21 17 19 14 11 12 13 10 10 14 16 22 19 13 8 8 8 9 18 12 12 8 7 7 6 8 8 8 8 10 14 18 16 18 16 14 15 20 22
30 32 34 35 22 18 18 18 18 15 11 11 13 16 15 22 19 17 14 14 14 14 13 17 14 21 18 10 10 12 9 7 8 9 10 16 17 18 19 16 16 19 18 22 23
Wind_Speed
19 20 21 21 21 21 21 20 19 20 20 19 17 16 13 13 17 7 12 9 9 12 4 15 12 15 16 18 23 32 7 5 9 12 20 20 16 18 17 14 14 11 20 21 19
20 20 21 22 21 21 21 20 20 19 20 19 16 15 14 12 9 19 16 7 10 10 10 16 14 13 14 20 8 6 4 11 10 11 23 27 2 16 13 12 12 18 23 21 18
22 22 21 22 22 21 21 21 21 20 18 17 15 13 12 13 11 22 18 15 13 12 16 17 15 17 17 16 5 4 12 6 16 11 25 29 23 12 25 12 16 23 24 21 18
23 23 22 23 23 23 21 21 22 20 17 15 12 10 10 8 6 7 8 14 13 12 15 18 13 18 16 9 1 7 13 13 8 21 14 18 22 18 26 16 18 20 22 20 18
23 23 22 22 23 23 21 21 21 20 17 13 10 7 8 10 20 8 11 7 11 12 17 16 14 18 18 7 3 9 14 9 13 16 17 20 17 17 20 14 19 20 19 18 16
23 23 23 22 22 22 22 20 21 19 16 10 8 5 7 15 8 15 14 14 15 17 18 17 16 19 15 4 8 12 11 10 15 12 12 14 15 16 15 18 19 18 16 15 15
23 23 23 24 24 24 23 22 21 18 12 7 7 7 12 18 4 14 14 18 18 19 18 17 20 14 13 8 10 9 10 9 12 16 12 18 16 14 16 15 17 16 15 14 12
23 24 24 24 25 24 23 22 21 15 10 6 7 9 10 16 12 11 13 18 19 18 20 15 14 15 17 4 5 13 14 12 18 19 4 8 12 13 15 15 15 15 15 14 13
23 24 24 25 25 25 24 24 21 13 10 6 7 8 18 7 14 12 17 19 20 17 18 9 9 16 16 12 11 14 13 14 16 20 11 4 11 16 17 15 14 14 13 13 11
24 24 25 25 25 25 27 27 7 7 9 9 11 11 13 15 16 16 19 19 19 16 15 9 8 16 19 12 15 17 17 21 15 14 15 14 10 15 17 17 14 13 12 13 14
24 25 26 26 26 22 18 6 7 7 9 13 8 13 5 18 18 15 18 21 19 19 19 17 15 17 18 18 18 15 13 17 16 19 26 14 16 18 18 18 16 16 14 15 15
24 25 26 28 29 22 10 9 18 14 16 18 23 23 19 15 12 18 21 20 18 20 21 17 20 21 18 20 20 19 11 12 13 16 11 17 20 18 17 17 18 17 16 15 16
24 25 26 29 33 12 11 19 16 17 15 25 22 23 19 11 15 20 20 21 21 23 22 20 21 22 18 15 16 16 10 10 15 12 4 11 19 13 15 15 18 18 18 17 17
24 25 24 30 10 13 13 12 7 15 11 19 23 25 23 17 17 22 23 21 17 23 21 23 22 21 18 17 17 18 11 18 15 14 11 16 13 19 23 18 16 18 19 19 19
23 23 23 10 15 9 15 18 13 12 9 10 23 16 19 21 17 20 24 23 20 19 18 21 21 23 21 19 16 12 16 18 13 11 14 14 10 15 16 16 16 19 20 19 21
25 23 20 14 9 17 19 16 12 9 11 5 15 16 24 20 22 21 22 24 21 19 21 22 17 19 20 19 16 18 10 17 9 11 15 16 12 7 10 17 16 9 18 20 21
26 26 15 11 9 9 16 9 9 11 16 13 20 21 22 17 24 22 25 25 23 18 21 23 25 15 13 18 20 18 11 8 9 12 13 15 15 10 19 22 21 21 33 21 19
28 33 11 12 13 16 7 9 16 15 25 22 17 21 22 22 24 24 25 22 27 23 16 16 19 20 16 21 15 13 16 9 13 12 13 13 9 16 10 15 26 25 27 22 21
33 9 12 10 16 10 8 13 16 22 21 24 19 14 21 23 21 21 24 24 25 27 21 18 21 21 22 17 16 15 18 18 18 12 6 7 10 11 9 9 5 9 11 18 21
10 9 13 15 18 9 10 19 22 27 30 17 16 15 20 22 26 25 25 24 25 25 26 18 15 21 17 15 15 16 17 13 12 9 10 8 8 10 15 10 11 9 5 6 17
6 8 4 15 10 9 13 20 24 29 23 19 14 17 14 18 25 21 21 22 27 28 27 25 17 19 22 15 21 15 11 9 12 11 9 9 5 13 11 8 7 7 8 4 9
7 7 10 12 10 10 15 23 27 25 26 15 14 19 18 20 22 26 26 25 28 28 27 24 8 13 26 20 23 21 16 10 9 9 8 9 5 13 11 11 9 7 3 6 2
7 11 9 11 13 13 19 24 27 24 22 19 16 21 20 21 18 24 26 24 25 27 25 18 13 10 14 20 20 17 16 19 17 13 12 11 5 7 7 7 6 5 5 6 9
6 7 11 12 14 20 19 23 23 22 25 20 13 17 22 20 19 19 23 22 26 26 6 14 18 13 14 15 16 22 22 22 19 12 13 12 6 11 11 9 9 6 5 7 9
6 8 10 8 13 18 21 20 20 21 20 18 14 23 12 14 15 17 18 23 23 11 16 14 11 15 17 20 19 17 23 20 20 19 17 11 7 3 3 8 2 2 3 5 5
7 8 13 14 20 15 13 22 20 18 18 21 18 20 17 18 9 11 16 12 21 17 12 10 8 11 18 18 18 21 22 23 24 23 23 20 16 22 14 11 7 1 5 7 5
8 9 8 10 16 12 12 11 17 22 15 9 5 8 13 17 14 7 10 11 6 10 15 14 13 13 15 17 20 21 20 21 17 17 15 13 4 12 11 4 2 2 4 6 7
Wind_Direction
353 350 347 344 343 340 337 337 336 332 325 324 324 320 319 321 302 236 252 244 194 172 209 264 238 260 265 252 252 204 272 87 52 96 130 123 118 86 98 128 151 122 140 140 146
351 349 347 342 341 340 336 333 333 331 325 320 318 316 317 329 272 261 250 146 145 165 224 247 252 242 249 248 243 202 149 129 148 159 82 356 93 114 137 130 126 119 124 138 152
349 346 344 342 339 338 335 331 330 330 325 316 312 311 315 311 272 255 203 165 163 188 243 253 265 276 254 255 237 336 86 83 104 83 132 174 80 97 1 138 125 132 139 149 151
346 344 340 340 337 334 333 330 327 327 324 315 309 306 314 264 262 40 72 145 159 207 236 256 258 266 250 251 264 104 65 74 83 61 7 74 83 106 141 232 127 141 141 149 156
343 339 337 335 334 331 330 328 326 323 320 310 304 313 278 224 252 142 131 148 163 204 221 236 234 248 250 201 199 117 88 86 104 150 84 70 66 121 178 182 129 138 146 152 158
341 337 335 333 331 329 327 324 323 319 313 302 300 307 253 250 214 144 175 177 197 203 218 236 234 242 279 127 242 100 136 168 108 89 117 118 107 111 108 124 129 144 149 157 162
339 336 334 330 329 327 323 320 318 312 304 297 290 259 258 242 226 159 177 192 209 203 218 229 245 272 256 183 125 127 135 129 145 111 54 111 98 113 127 136 147 147 157 159 155
338 334 332 328 325 322 319 314 311 299 287 283 282 252 264 225 235 216 200 190 216 211 231 220 254 271 254 139 191 169 170 177 134 110 77 64 117 133 150 153 149 164 158 153 147
335 333 330 326 323 320 316 308 299 279 265 253 248 230 258 125 206 225 213 191 206 209 229 273 216 253 247 208 192 209 197 153 124 125 153 153 162 158 165 167 169 170 151 150 154
333 331 328 325 321 321 318 297 298 250 225 224 258 263 246 223 196 203 199 193 203 199 219 213 213 234 240 183 210 201 216 163 158 179 157 169 163 168 175 164 169 175 163 162 165
331 329 326 322 318 323 330 293 217 183 219 248 208 233 200 215 170 188 192 190 197 208 207 204 214 219 217 203 228 212 221 155 244 153 163 173 172 176 185 161 175 171 177 176 175
330 328 325 320 315 312 286 256 287 330 301 276 252 246 271 174 168 186 192 193 198 204 205 195 217 221 222 214 234 238 204 203 202 154 178 154 183 190 189 173 173 176 181 185 170
328 326 325 321 314 285 236 268 291 297 282 280 256 230 228 190 192 189 197 202 197 208 202 208 212 233 233 215 229 252 240 221 199 149 176 199 155 134 262 195 173 180 182 184 173
326 325 326 330 288 335 277 262 335 299 278 260 220 224 204 210 217 186 191 210 197 211 206 227 212 221 234 231 206 233 216 262 230 176 211 178 229 167 218 188 194 189 182 186 180
322 321 322 319 305 285 303 334 336 284 273 182 191 176 188 199 204 190 184 210 212 212 219 213 233 211 225 234 232 240 227 231 239 240 234 229 231 156 184 187 198 200 190 193 180
317 316 328 304 211 253 289 297 275 239 244 188 149 185 188 193 216 186 187 215 234 216 221 237 218 224 210 227 221 223 256 205 224 254 252 227 216 155 177 211 216 258 216 195 187
313 307 296 283 246 340 335 295 230 240 242 273 159 186 197 187 206 196 188 204 217 218 218 221 232 200 210 204 214 213 205 207 225 230 243 237 221 238 175 216 205 176 230 196 190
314 305 252 219 227 256 249 256 239 237 244 267 173 184 209 189 206 192 189 201 217 221 214 210 221 198 200 216 200 192 222 215 207 231 229 207 182 221 193 174 199 207 202 193 189
313 285 253 219 220 244 233 231 224 243 251 241 258 201 202 201 206 189 195 206 208 224 228 197 228 186 208 224 188 183 234 243 259 265 253 178 196 222 158 157 156 179 213 192 185
311 287 253 241 161 194 224 242 250 245 260 299 281 234 203 201 208 189 194 205 216 216 237 195 224 186 208 206 224 219 206 233 250 261 282 236 232 213 155 157 172 181 213 234 196
261 265 274 161 156 211 223 230 240 259 275 279 272 285 244 203 208 200 201 210 213 213 228 238 208 189 192 191 216 207 230 217 248 229 255 256 83 99 136 154 146 165 174 191 231
297 257 149 164 207 226 228 236 262 250 239 246 256 278 293 288 223 220 202 202 201 217 220 236 245 251 194 194 206 226 196 214 246 254 283 305 315 130 141 152 168 121 167 150 205
283 276 239 221 237 232 230 241 257 253 255 262 226 250 267 270 276 230 225 201 204 212 217 219 236 246 237 198 196 222 217 213 223 241 259 255 179 120 151 141 119 120 65 163 165
278 266 214 211 244 255 243 234 239 246 246 272 271 269 247 259 271 268 211 230 211 204 196 215 214 230 246 232 195 200 216 233 252 234 237 231 197 178 199 168 145 188 190 185 183
246 272 9 275 221 229 256 265 263 234 228 257 266 276 262 259 257 261 253 214 220 186 190 216 226 238 233 260 268 239 209 218 238 264 270 248 229 210 175 200 65 54 297 269 245
306 344 339 301 289 283 242 248 267 255 229 223 229 264 249 258 304 348 348 288 214 158 173 192 211 235 253 254 244 252 265 207 213 225 243 253 244 197 181 155 169 323 313 294 244
6 319 299 292 286 277 254 256 254 278 228 235 192 294 284 347 347 328 311 314 346 177 190 192 204 223 240 242 256 256 247 251 238 226 236 259 287 107 135 129 44 16 303 293 302